Regional Weather Roundup
Issued by NWS

Home | Current Version | Previous Version | Graphics & Text | Print | Product List | Glossary On
Versions: 1 2 3 4 5 6 7 8 9 10 11 12 13 14 15 16 17 18 19 20 21 22 23 24 25 26 27 28 29 30 31 32 33 34 35 36 37 38 39 40 41 42 43 44 45 46 47 48 49 50
000
ASUS45 KBOI 030910
RWRID

IDAHO REGIONAL WEATHER ROUNDUP
NATIONAL WEATHER SERVICE BOISE ID
300 AM MDT WED JUN 03 2015

NOTE: "FAIR" INDICATES FEW OR NO CLOUDS BELOW 12000 FEET
WITH NO SIGNIFICANT WEATHER AND/OR OBSTRUCTIONS TO VISIBILITY

IDZ012-014-031000-
SOUTHWEST IDAHO


CITY           SKY/WX    TMP DP  RH WIND       PRES   REMARKS
BOISE          MOCLDY    53  48  83 CALM      29.99S
CALDWELL       PTCLDY    54  43  66 W3        30.00S
MOUNTAIN HOME  CLEAR     52  46  80 NW9       29.97S
$$

IDZ016-017-031000-
SOUTHCENTRAL IDAHO


CITY           SKY/WX    TMP DP  RH WIND       PRES   REMARKS
BURLEY         CLEAR     50  43  77 W7        29.97F
JEROME         CLEAR     51  42  71 SW6       29.99S
TWIN FALLS     CLEAR     51  41  68 S9        29.97F
$$

IDZ019>023-031000-
SOUTHEAST IDAHO


CITY           SKY/WX    TMP DP  RH WIND       PRES   REMARKS
IDAHO FALLS    CLEAR     53  41  63 CALM      30.00S
POCATELLO      CLEAR     50  46  86 E5        29.99S
REXBURG        CLEAR     49  40  71 CALM      30.01R
$$

IDZ006-010-011-018-031-032-031000-
CENTRAL IDAHO MOUNTAINS


CITY           SKY/WX    TMP DP  RH WIND       PRES   REMARKS
MCCALL         PTCLDY    43  42  97 N5        30.01F
HAILEY         CLEAR     46  37  71 NW8       30.03F
STANLEY          N/A     36  32  85 SE3       30.09F
SALMON           N/A     50  41  71 N3        30.01F
CHALLIS        PTCLDY    46  39  76 W3        30.04S
$$

IDZ002-004-006-007-026-031000-
NORTHERN IDAHO


CITY           SKY/WX    TMP DP  RH WIND       PRES   REMARKS
LEWISTON       MOCLDY    56  50  80 E8        29.99S
LOWELL           N/A    N/A N/A N/A CALM      30.04S
COEUR D`ALENE  CLOUDY    57  45  62 S9        29.96S
MULLAN PASS    CLOUDY    41  37  86 VRB6      30.04F
$$



USA.gov is the U.S. government's official web portal to all federal, state and local government web resources and services.